Weather in Yubileyny

Russia / Kirov Oblast     58°28′38″N   49°12′19″E
В апреле 2022 года жителям России запретили посещать сайт meteo.paraplan.net по решению Генеральной прокуратуры. Аудитория сайта уменьшилась в 10 раз. Владельцы сайта не видят смысла в поддержке погодного сервера в таких условиях. Сайт будет закрыт в октябре.
temp.,
°C
wind,
m/s
gust,
m/s
humid.,
%
clouds,
%
prec.,
mm/h
press.,
hPa
HPBL,
m
30 september, fri
fri3000:00+2ese4998100 1.3 1020408
03:00+3ese3899100 1.8 1021348
06:00+3ese3697100 0.1 1023282
09:00+4se3695100 0.1 1024284
12:00+6se459198 0.0 1024400
15:00+7se4690100 0.0 1025416
18:00+6se4895100 0.0 1025413
21:00+6se4895100 0.0 1025355
1 october, sat
sat100:00+6se4995100 0.0 1024311
03:00+6sse4109787 0.0 1024300
06:00+6sse51295100 0.0 1023330
09:00+8sse51189100 0.0 1023380
12:00+12s5873100 0.0 1021638
15:00+11sse5981100 0.1 1021536
18:00+11sse5128399 0.1 1020544
21:00+10sse61385100 0.2 1018501
2 october, sun
sun200:00+10sse61491100 2.1 1016476
03:00+10sse61494100 6.4 1014461
06:00+10sse61590100 2.9 1013521
09:00+12sse61584100 3.3 1011628
12:00+14s71483100 0.6 1009935
15:00+14s71490100 1.6 1008918
18:00+14ssw61386100 0.3 1008702
21:00+12sw51279100 0.8 1009639
3 october, mon
mon300:00+9ssw3992100 0.0 1010236
03:00+8ssw379494 0.0 1011172
06:00+9s2592100 0.1 1012136
09:00+12se248599 0.1 1013217
12:00+15sse4791100 0.1 1013521
15:00+17sse41085100 0.4 1012641
18:00+15sse51383100 0.0 1014450
21:00+13s51474100 0.0 1014452
4 october, tue
tue400:00+13s51371100 0.0 1015466
03:00+12sse61468100 0.0 1016454
06:00+12sse61462100 0.0 1018530
09:00+13sse71554100 0.0 1019713
12:00+14s61348100 0.0 1020948
15:00+14s6114896 0.0 1021972
18:00+13s61249100 0.0 10221085
21:00+11s71476100 0.1 10231108